Location: Invercargill
(46.4000°S, 168.3500°E)
Time: 18:37:49
(UTC+12:00)

PAYLOAD B - Pass Details

Date: 14 May 2021
Orbit: 849 x 871 km, 99.1° (Epoch: 14 June)

Event Time Altitude Azimuth Distance (km) Brightness Sun altitude
Rises 19:23:19 0° 166° (SSE) 3,495 7.2 -20.3°
Reaches altitude 10° 19:25:44 10° 165° (SSE) 2,548 6.5 -20.7°
Maximum altitude 19:31:25 90° 234° (SW) 881 4.2 -21.7°
Drops below altitude 10° 19:37:00 10° 343° (NNW) 2,503 6.9 -22.6°
Sets 19:39:21 0° 343° (NNW) 3,429 7.6 -23.0°
